Rechercher aéroport 
image banner adimage banner adimage banner ad
image banner ad

CA26 - Hall Of Justice

Situé à San Francisco, United States

ICAO - CA26, IATA -

Données fournies par Airmate  

Information générale

Coordonnées: N37°46'30" W122°24'15"
Élévation : 118 feet MSL.
Variation magnétique : 16° East
Voir autres Aéroports à California

Données opérationnelles

Special qualification required
Heure actuelle UTC:
Heure actuelle locale:
Météo à : KOAK - Metropolitan Oakland Intl ( 17 km )
METAR: KOAK 270453Z 33009KT 10SM FEW007 BKN200 15/12 A2995 RMK AO2 SLP141 T01500122
TAF: KOAK 262340Z 2700/2806 30013KT P6SM SCT200 FM270500 31007KT P6SM FEW008 BKN100 FM270700 31008KT P6SM BKN008 BKN100 FM271000 30006KT P6SM VCSH OVC006 FM271630 30007KT P6SM SCT015 SCT100 SCT200 FM272100 30011KT P6SM SCT250 FM280500 31008KT P6SM FEW008 SCT250
Voir NOTAMs / SUP AIP / TFR affectant cet aéroport [VIEW]
Fréquences de communication: [VIEW]

Pistes:

Coordonnées de l'aéroport

Adresse: San Francisco United States

Vue satellite de CA26